Regional Weather Roundup
Issued by NWS Columbia, SC

Home | Current Version | Previous Version | Text Only | Print | Product List | Glossary On
Versions: 1 2 3 4 5 6 7 8 9 10 11 12 13 14 15 16 17 18 19 20 21 22 23 24 25 26 27
000
ASUS42 KCAE 312210
RWRCAE
REGIONAL WEATHER ROUNDUP
NATIONAL WEATHER SERVICE COLUMBIA SC
600 PM EDT WED AUG 31 2016

NOTE: "FAIR" INDICATES FEW OR NO CLOUDS BELOW 12,000 FEET WITH NO
SIGNIFICANT WEATHER AND/OR OBSTRUCTIONS TO VISIBILITY.

NOT ALL STATIONS ARE QUALITY CONTROLLED BY THE NATIONAL
WEATHER SERVICE. USE DATA WITH CAUTION...ESPECIALLY
DEWPOINT OBSERVATIONS.

SCZ001>056-GAZ040-063>065-077-312300-
...UPSTATE SOUTH CAROLINA...

CITY           SKY/WX    TMP DP  RH WIND       PRES   REMARKS
ANDERSON       MOSUNNY   89  66  46 SE7       29.90S
LIBERTY        PTCLDY    89  68  49 CALM      29.91S
SPARTANBURG    SUNNY     90  64  43 SE7       29.90S
CLEMSON        SUNNY     93  61  34 CALM      29.92S
GREENVILLE     SUNNY     91  62  37 E6        29.92S
GREENWOOD      PTSUNNY   86  68  54 S8        29.93S
GREER          SUNNY     90  62  39 NE3       29.90S
ROCK HILL      SUNNY     88  69  53 S9        29.93R
CHESTER        PTCLDY    82  64  54 SE14      29.94S
LAURENS        MOCLDY    82  70  65 SE7G16    29.92R


...CENTRAL SOUTH CAROLINA...

CITY           SKY/WX    TMP DP  RH WIND       PRES   REMARKS
COLUMBIA APT   CLOUDY    86  70  58 E15       29.90F
COLUMBIA OWENS LGT RAIN  77  73  87 E3        29.93S
MCENTIRE ANGB  PTSUNNY   75  73  93 E5        29.92F
ORANGEBURG     PTSUNNY   85  71  63 SE5       29.90R
SUMTER SHAW    RAIN      74  72  92 S3        29.90S
NEWBERRY       MOCLDY    75  70  83 SE6G16    29.95F
AIKEN          MOCLDY    82  75  78 NE5       29.94S
MANNING        LGT RAIN  75  73  94 NW3       29.93R
LANCASTER      PTCLDY    81  73  78 SE5       29.94R
WINNSBORO      CLOUDY    72  70  94 CALM      29.93F


...EASTERN AND COASTAL SOUTH CAROLINA...

CITY           SKY/WX    TMP DP  RH WIND       PRES   REMARKS
MYRTLE BEACH   PTSUNNY   82  68  61 SE7       29.93F
N MYRTLE BCH   PTSUNNY   82  74  76 SE9       29.92S
CONWAY         FAIR      82  72  69 SE7       29.92S
MARION         FAIR      81  72  74 SE13G20   29.93R
HARTSVILLE     FAIR      81  70  69 S3        29.93R
FLORENCE       MOSUNNY   86  70  58 SE8       29.91S
DARLINGTON     LGT RAIN  79  74  84 E9        29.93R
CHARLESTON APT LGT RAIN  80  75  84 E8        29.89S
MOUNT PLEASANT FAIR      81  73  78 E6        29.89S
WALTERBORO     PTCLDY    88  72  58 E9        29.90R
BEAUFORT       PTSUNNY   84  72  67 E13G20    29.87S


...EASTERN GEORGIA...

CITY           SKY/WX    TMP DP  RH WIND       PRES   REMARKS
AUGUSTA BUSH F MOSUNNY   90  71  53 NE8       29.87S HX  96
AUGUSTA DANIEL PTSUNNY   89  67  47 E6        29.89S
THOMSON        SUNNY     92  74  54 E8        29.93S HX 101
WASHINGTON     FAIR      90  70  51 E6        29.89S HX  95
CLAXTON        CLOUDY    82  76  82 E3        29.88S
STATESBORO     SUNNY     87  75  68 SE6       29.87S HX  96
SAVANNAH       PTSUNNY   84  71  65 E12       29.87S


...SOUTHERN NORTH CAROLINA...

CITY           SKY/WX    TMP DP  RH WIND       PRES   REMARKS
CHARLOTTE      MOSUNNY   89  66  46 S10       29.92S
MONROE         SUNNY     85  71  63 VRB7      29.92S
WADESBORO      MOCLDY    87  69  54 S7        29.91R HAZE
ROCKINGHAM     CLOUDY    86  71  60 S9        29.92R
RUTHERFORDTON    N/A     89  64  43 NE3       29.94R
ASHEVILLE      PTSUNNY   84  60  44 SE3       30.00R

$$




USA.gov is the U.S. government's official web portal to all federal, state and local government web resources and services.